| time (UTC) | temp C | wind direction | speed KPH | gust KPH | rain 1hr cm | rain 24hr cm | rain mn cm | humidity % | barometer mb |
| 20260503184036 | 15 | 338 | 14.5 | 22.5 | 0.00 | 0.00 | 0.00 | 51 | 1016.3 |
| 20260503183516 | 15 | 338 | 14.5 | 20.9 | 0.00 | 0.00 | 0.00 | 51 | 1016.2 |
| 20260503183035 | 15 | 338 | 14.5 | 20.9 | 0.00 | 0.00 | 0.00 | 52 | 1016.2 |
| 20260503182536 | 15 | 338 | 14.5 | 20.9 | 0.00 | 0.00 | 0.00 | 51 | 1016.1 |
| 20260503182016 | 16 | 338 | 14.5 | 19.3 | 0.00 | 0.00 | 0.00 | 52 | 1016.0 |
| 20260503181536 | 16 | 338 | 12.9 | 19.3 | 0.00 | 0.00 | 0.00 | 53 | 1016.1 |
| 20260503181015 | 16 | 338 | 14.5 | 20.9 | 0.00 | 0.00 | 0.00 | 53 | 1016.1 |
| 20260503180516 | 16 | 338 | 14.5 | 20.9 | 0.00 | 0.00 | 0.00 | 53 | 1016.0 |
| 20260503180016 | 16 | 338 | 14.5 | 19.3 | 0.00 | 0.00 | 0.00 | 54 | 1016.1 |
| 20260503175516 | 16 | 338 | 14.5 | 20.9 | 0.00 | 0.00 | 0.00 | 54 | 1016.0 |
| 20260503175016 | 16 | 338 | 9.7 | 19.3 | 0.00 | 0.00 | 0.00 | 54 | 1016.1 |
| 20260503174535 | 16 | 338 | 16.1 | 24.1 | 0.00 | 0.00 | 0.00 | 54 | 1016.0 |
| 20260503174016 | 16 | 338 | 11.3 | 19.3 | 0.00 | 0.00 | 0.00 | 54 | 1016.0 |
| 20260503173516 | 16 | 338 | 16.1 | 22.5 | 0.00 | 0.00 | 0.00 | 54 | 1016.1 |
| 20260503173015 | 16 | 338 | 14.5 | 20.9 | 0.00 | 0.00 | 0.00 | 55 | 1016.0 |
| 20260503172515 | 16 | 338 | 16.1 | 22.5 | 0.00 | 0.00 | 0.00 | 54 | 1016.1 |
| 20260503172016 | 16 | 338 | 14.5 | 24.1 | 0.00 | 0.00 | 0.00 | 55 | 1016.0 |
| 20260503171516 | 16 | 338 | 14.5 | 22.5 | 0.00 | 0.00 | 0.00 | 56 | 1016.0 |
| 20260503171016 | 16 | 338 | 12.9 | 17.7 | 0.00 | 0.00 | 0.00 | 55 | 1016.0 |
| 20260503170515 | 16 | 338 | 12.9 | 19.3 | 0.00 | 0.00 | 0.00 | 56 | 1016.0 |
| 20260503150516 | 20 | 338 | 8.0 | 14.5 | 0.00 | 0.00 | 0.00 | 50 | 1016.7 |
| 20260503131016 | 20 | 0 | 6.4 | 14.5 | 0.00 | 0.00 | 0.00 | 53 | 1018.1 |
| 20260503130516 | 20 | 0 | 8.0 | 29.0 | 0.00 | 0.00 | 0.00 | 53 | 1018.2 |
| 20260503110516 | 20 | 338 | 4.8 | 12.9 | 0.00 | 0.00 | 0.00 | 43 | 1018.7 |
| 20260503081516 | 16 | 23 | 3.2 | 8.0 | 0.00 | 0.00 | 0.00 | 59 | 1018.8 |
| 20260503081016 | 15 | 0 | 1.6 | 4.8 | 0.00 | 0.00 | 0.00 | 59 | 1018.8 |
| 20260503080517 | 15 | 45 | 1.6 | 6.4 | 0.00 | 0.00 | 0.00 | 63 | 1018.8 |
| 20260503072516 | 14 | 45 | 1.6 | 6.4 | 0.00 | 0.00 | 0.00 | 68 | 1018.7 |
| 20260503072017 | 13 | 45 | 1.6 | 4.8 | 0.00 | 0.00 | 0.00 | 69 | 1018.7 |
| 20260503071517 | 13 | 0.0 | 3.2 | 0.00 | 0.00 | 0.00 | 70 | 1018.7 | |
| 20260503071016 | 13 | 45 | 1.6 | 4.8 | 0.00 | 0.00 | 0.00 | 69 | 1018.7 |
| 20260503070557 | 13 | 23 | 1.6 | 6.4 | 0.00 | 0.00 | 0.00 | 69 | 1018.8 |
| 20260503055016 | 13 | 0 | 3.2 | 6.4 | 0.00 | 0.00 | 0.00 | 71 | 1019.3 |
| 20260503054516 | 13 | 338 | 1.6 | 4.8 | 0.00 | 0.00 | 0.00 | 69 | 1019.3 |
| 20260503054016 | 13 | 0 | 1.6 | 3.2 | 0.00 | 0.00 | 0.00 | 67 | 1019.3 |
| 20260503053517 | 13 | 0.0 | 1.6 | 0.00 | 0.00 | 0.00 | 64 | 1019.2 | |
| 20260503053016 | 13 | 0.0 | 3.2 | 0.00 | 0.00 | 0.00 | 63 | 1019.1 | |
| 20260503052516 | 12 | 0.0 | 1.6 | 0.00 | 0.00 | 0.00 | 63 | 1019.1 | |
| 20260503052016 | 12 | 0.0 | 0.0 | 0.00 | 0.00 | 0.00 | 63 | 1019.1 | |
| 20260503051516 | 12 | 0.0 | 0.0 | 0.00 | 0.00 | 0.00 | 63 | 1019.1 | |
| 20260503051016 | 12 | 0.0 | 0.0 | 0.00 | 0.00 | 0.00 | 64 | 1018.9 | |
| 20260503050536 | 12 | 0.0 | 0.0 | 0.00 | 0.00 | 0.00 | 65 | 1018.9 | |
| 20260503050016 | 12 | 0.0 | 0.0 | 0.00 | 0.00 | 0.00 | 67 | 1019.0 | |
| 20260503045516 | 12 | 0.0 | 1.6 | 0.00 | 0.00 | 0.00 | 67 | 1019.0 | |
| 20260503045016 | 12 | 0.0 | 1.6 | 0.00 | 0.00 | 0.00 | 66 | 1018.9 | |
| 20260503044516 | 11 | 0.0 | 1.6 | 0.00 | 0.00 | 0.00 | 66 | 1018.8 | |
| 20260503044016 | 11 | 0.0 | 3.2 | 0.00 | 0.00 | 0.00 | 66 | 1018.9 | |
| 20260503043516 | 11 | 0.0 | 1.6 | 0.00 | 0.00 | 0.00 | 65 | 1018.9 | |
| 20260503043016 | 11 | 0.0 | 1.6 | 0.00 | 0.00 | 0.00 | 65 | 1018.7 | |
| 20260503042516 | 11 | 0.0 | 0.0 | 0.00 | 0.00 | 0.00 | 66 | 1018.8 | |
| 20260503042016 | 11 | 0.0 | 1.6 | 0.00 | 0.00 | 0.00 | 66 | 1018.8 | |
| 20260503041536 | 11 | 0.0 | 1.6 | 0.00 | 0.00 | 0.00 | 66 | 1018.8 | |
| 20260503041036 | 11 | 0.0 | 1.6 | 0.00 | 0.00 | 0.00 | 66 | 1018.8 | |
| 20260503040516 | 11 | 0.0 | 1.6 | 0.00 | 0.00 | 0.00 | 65 | 1018.7 | |
| 20260503040018 | 11 | 315 | 1.6 | 1.6 | 0.00 | 0.00 | 0.00 | 66 | 1019.0 |
| 20260503035516 | 11 | 0.0 | 1.6 | 0.00 | 0.00 | 0.00 | 66 | 1019.0 | |
| 20260503035016 | 11 | 0.0 | 1.6 | 0.00 | 0.00 | 0.00 | 66 | 1018.9 | |
| 20260503034516 | 11 | 0.0 | 0.0 | 0.00 | 0.00 | 0.00 | 66 | 1018.9 | |
| 20260503034016 | 11 | 338 | 1.6 | 4.8 | 0.00 | 0.00 | 0.00 | 66 | 1018.9 |
| 20260503033516 | 11 | 338 | 1.6 | 3.2 | 0.00 | 0.00 | 0.00 | 67 | 1018.9 |
| 20260503033016 | 11 | 0.0 | 1.6 | 0.00 | 0.00 | 0.00 | 67 | 1018.9 | |
| 20260503032516 | 11 | 338 | 1.6 | 3.2 | 0.00 | 0.00 | 0.00 | 67 | 1019.0 |
| 20260503032016 | 11 | 338 | 3.2 | 6.4 | 0.00 | 0.00 | 0.00 | 67 | 1018.9 |
| 20260503031536 | 11 | 338 | 3.2 | 8.0 | 0.00 | 0.00 | 0.00 | 67 | 1018.9 |
| 20260503031016 | 11 | 315 | 8.0 | 12.9 | 0.00 | 0.00 | 0.00 | 67 | 1018.9 |
| 20260503030516 | 11 | 315 | 8.0 | 12.9 | 0.00 | 0.00 | 0.00 | 67 | 1018.9 |
| 20260503030016 | 11 | 338 | 4.8 | 9.7 | 0.00 | 0.00 | 0.00 | 67 | 1018.9 |
| 20260503025516 | 12 | 338 | 4.8 | 6.4 | 0.00 | 0.00 | 0.00 | 67 | 1018.9 |
| 20260503025036 | 12 | 338 | 3.2 | 6.4 | 0.00 | 0.00 | 0.00 | 67 | 1018.9 |
| 20260503024536 | 12 | 338 | 8.0 | 16.1 | 0.00 | 0.00 | 0.00 | 67 | 1018.9 |
| 20260503024016 | 12 | 338 | 11.3 | 16.1 | 0.00 | 0.00 | 0.00 | 67 | 1018.9 |
| 20260503023516 | 12 | 338 | 9.7 | 16.1 | 0.00 | 0.00 | 0.00 | 67 | 1018.9 |
| 20260503023016 | 12 | 338 | 8.0 | 17.7 | 0.00 | 0.00 | 0.00 | 67 | 1019.0 |
| 20260503022516 | 12 | 315 | 4.8 | 11.3 | 0.00 | 0.00 | 0.00 | 66 | 1019.1 |
| 20260503022016 | 12 | 315 | 4.8 | 8.0 | 0.00 | 0.00 | 0.00 | 66 | 1019.0 |
| 20260503021516 | 12 | 338 | 6.4 | 8.0 | 0.00 | 0.00 | 0.00 | 67 | 1019.0 |
| 20260503021036 | 12 | 338 | 6.4 | 9.7 | 0.00 | 0.00 | 0.00 | 67 | 1019.0 |
| 20260503020516 | 12 | 338 | 8.0 | 14.5 | 0.00 | 0.00 | 0.00 | 67 | 1019.0 |
| 20260503020016 | 12 | 338 | 8.0 | 14.5 | 0.00 | 0.00 | 0.00 | 66 | 1019.0 |
| 20260503015516 | 12 | 338 | 3.2 | 6.4 | 0.00 | 0.00 | 0.00 | 66 | 1019.0 |
| 20260503015016 | 12 | 0.0 | 3.2 | 0.00 | 0.00 | 0.00 | 66 | 1019.0 | |
| 20260503014516 | 12 | 293 | 3.2 | 6.4 | 0.00 | 0.00 | 0.00 | 66 | 1019.1 |
| 20260503014016 | 12 | 315 | 3.2 | 6.4 | 0.00 | 0.00 | 0.00 | 66 | 1019.1 |
| 20260503013516 | 12 | 338 | 1.6 | 4.8 | 0.00 | 0.00 | 0.00 | 66 | 1019.1 |
| 20260503013036 | 12 | 0.0 | 0.0 | 0.00 | 0.00 | 0.00 | 66 | 1019.0 | |
| 20260503012516 | 12 | 0.0 | 0.0 | 0.00 | 0.00 | 0.00 | 65 | 1019.0 | |
| 20260503012036 | 12 | 0.0 | 0.0 | 0.00 | 0.00 | 0.00 | 65 | 1019.0 | |
| 20260503011516 | 12 | 0.0 | 1.6 | 0.00 | 0.00 | 0.00 | 65 | 1019.0 | |
| 20260503011016 | 12 | 315 | 3.2 | 6.4 | 0.00 | 0.00 | 0.00 | 65 | 1019.0 |
| 20260503010516 | 12 | 338 | 4.8 | 6.4 | 0.00 | 0.00 | 0.00 | 66 | 1019.0 |
| 20260503010016 | 12 | 338 | 4.8 | 6.4 | 0.00 | 0.00 | 0.00 | 65 | 1019.2 |
| 20260503005516 | 12 | 338 | 6.4 | 8.0 | 0.00 | 0.00 | 0.00 | 64 | 1019.2 |
| 20260503005016 | 12 | 338 | 4.8 | 6.4 | 0.00 | 0.00 | 0.00 | 64 | 1019.3 |
| 20260503004516 | 13 | 338 | 3.2 | 4.8 | 0.00 | 0.00 | 0.00 | 64 | 1019.5 |
| 20260503004016 | 13 | 338 | 3.2 | 6.4 | 0.00 | 0.00 | 0.00 | 64 | 1019.6 |
| 20260503003516 | 13 | 338 | 6.4 | 9.7 | 0.00 | 0.00 | 0.00 | 64 | 1019.6 |
| 20260503003015 | 13 | 338 | 6.4 | 9.7 | 0.00 | 0.00 | 0.00 | 64 | 1019.5 |
| 20260503002516 | 13 | 338 | 6.4 | 9.7 | 0.00 | 0.00 | 0.00 | 63 | 1019.6 |
| 20260503002015 | 13 | 338 | 4.8 | 9.7 | 0.00 | 0.00 | 0.00 | 61 | 1019.7 |
| 20260503001516 | 13 | 338 | 4.8 | 8.0 | 0.00 | 0.00 | 0.00 | 60 | 1019.8 |
| 20260503001056 | 13 | 338 | 4.8 | 6.4 | 0.00 | 0.00 | 0.00 | 60 | 1019.8 |
| 20260503000515 | 13 | 338 | 3.2 | 4.8 | 0.00 | 0.00 | 0.00 | 60 | 1019.8 |
| 20260503000015 | 13 | 338 | 3.2 | 6.4 | 0.00 | 0.00 | 0.00 | 59 | 1019.8 |
| 20260502235515 | 13 | 338 | 4.8 | 6.4 | 0.00 | 0.00 | 0.00 | 58 | 1019.9 |
| 20260502235016 | 13 | 338 | 3.2 | 4.8 | 0.00 | 0.00 | 0.00 | 57 | 1020.0 |
| 20260502234516 | 13 | 338 | 3.2 | 4.8 | 0.00 | 0.00 | 0.00 | 56 | 1020.0 |
| 20260502234015 | 14 | 0.0 | 3.2 | 0.00 | 0.00 | 0.00 | 56 | 1020.0 | |
| 20260502233516 | 14 | 0.0 | 0.0 | 0.00 | 0.00 | 0.00 | 56 | 1020.0 | |
| 20260502233036 | 14 | 0.0 | 0.0 | 0.00 | 0.00 | 0.00 | 56 | 1020.0 | |
| 20260502232516 | 14 | 0.0 | 0.0 | 0.00 | 0.00 | 0.00 | 56 | 1020.0 | |
| 20260502232016 | 14 | 0.0 | 0.0 | 0.00 | 0.00 | 0.00 | 56 | 1020.0 | |
| 20260502231516 | 14 | 0.0 | 0.0 | 0.00 | 0.00 | 0.00 | 56 | 1020.1 | |
| 20260502231016 | 14 | 0.0 | 0.0 | 0.00 | 0.00 | 0.00 | 56 | 1020.1 | |
| 20260502230515 | 14 | 0.0 | 0.0 | 0.00 | 0.00 | 0.00 | 57 | 1020.1 | |
| 20260502230015 | 14 | 0.0 | 0.0 | 0.00 | 0.00 | 0.00 | 57 | 1020.1 | |
| 20260502225516 | 14 | 338 | 1.6 | 4.8 | 0.00 | 0.00 | 0.00 | 57 | 1020.1 |
| 20260502225015 | 14 | 0.0 | 4.8 | 0.00 | 0.00 | 0.00 | 57 | 1020.1 | |
| 20260502224515 | 14 | 0.0 | 0.0 | 0.00 | 0.00 | 0.00 | 58 | 1020.2 | |
| 20260502224016 | 14 | 338 | 1.6 | 3.2 | 0.00 | 0.00 | 0.00 | 57 | 1020.2 |
| 20260502223515 | 14 | 338 | 1.6 | 3.2 | 0.00 | 0.00 | 0.00 | 57 | 1020.2 |
| 20260502223016 | 14 | 338 | 3.2 | 3.2 | 0.00 | 0.00 | 0.00 | 57 | 1020.3 |
| 20260502222515 | 14 | 338 | 3.2 | 4.8 | 0.00 | 0.00 | 0.00 | 57 | 1020.3 |
| 20260502222015 | 14 | 338 | 4.8 | 6.4 | 0.00 | 0.00 | 0.00 | 57 | 1020.3 |
| 20260502221536 | 14 | 338 | 3.2 | 4.8 | 0.00 | 0.00 | 0.00 | 57 | 1020.3 |
| 20260502221015 | 14 | 315 | 3.2 | 4.8 | 0.00 | 0.00 | 0.00 | 57 | 1020.3 |
| 20260502220516 | 14 | 315 | 3.2 | 4.8 | 0.00 | 0.00 | 0.00 | 57 | 1020.3 |
| 20260502220015 | 14 | 315 | 1.6 | 4.8 | 0.00 | 0.00 | 0.00 | 57 | 1020.2 |
| 20260502215516 | 14 | 0.0 | 1.6 | 0.00 | 0.00 | 0.00 | 57 | 1020.1 | |
| 20260502215016 | 14 | 0.0 | 1.6 | 0.00 | 0.00 | 0.00 | 58 | 1020.2 | |
| 20260502214536 | 14 | 315 | 1.6 | 3.2 | 0.00 | 0.00 | 0.00 | 58 | 1020.2 |
| 20260502214016 | 14 | 315 | 1.6 | 4.8 | 0.00 | 0.00 | 0.00 | 58 | 1020.3 |
| 20260502213516 | 14 | 315 | 3.2 | 4.8 | 0.00 | 0.00 | 0.00 | 58 | 1020.2 |
| 20260502213016 | 14 | 315 | 3.2 | 6.4 | 0.00 | 0.00 | 0.00 | 58 | 1020.1 |
| 20260502212516 | 14 | 338 | 3.2 | 4.8 | 0.00 | 0.00 | 0.00 | 59 | 1020.2 |
| 20260502212016 | 14 | 338 | 3.2 | 4.8 | 0.00 | 0.00 | 0.00 | 59 | 1020.2 |
| 20260502211516 | 14 | 338 | 3.2 | 6.4 | 0.00 | 0.00 | 0.00 | 58 | 1020.2 |
| 20260502211016 | 14 | 315 | 6.4 | 9.7 | 0.00 | 0.00 | 0.00 | 58 | 1020.2 |
| 20260502210516 | 14 | 315 | 6.4 | 8.0 | 0.00 | 0.00 | 0.00 | 58 | 1020.2 |
| 20260502210016 | 15 | 315 | 6.4 | 8.0 | 0.00 | 0.00 | 0.00 | 59 | 1020.2 |
| 20260502205516 | 14 | 315 | 6.4 | 9.7 | 0.00 | 0.00 | 0.00 | 58 | 1020.2 |
| 20260502205016 | 14 | 315 | 8.0 | 12.9 | 0.00 | 0.00 | 0.00 | 58 | 1020.2 |
| 20260502204516 | 15 | 338 | 8.0 | 14.5 | 0.00 | 0.00 | 0.00 | 58 | 1020.2 |
| 20260502204016 | 15 | 338 | 9.7 | 16.1 | 0.00 | 0.00 | 0.00 | 58 | 1020.3 |
| 20260502203516 | 15 | 338 | 4.8 | 8.0 | 0.00 | 0.00 | 0.00 | 59 | 1020.3 |
| 20260502203016 | 14 | 45 | 3.2 | 9.7 | 0.00 | 0.00 | 0.00 | 58 | 1020.1 |
| 20260502202516 | 14 | 338 | 3.2 | 9.7 | 0.00 | 0.00 | 0.00 | 58 | 1020.2 |
| 20260502202016 | 14 | 338 | 6.4 | 12.9 | 0.00 | 0.00 | 0.00 | 58 | 1020.2 |
| 20260502201516 | 14 | 338 | 8.0 | 14.5 | 0.00 | 0.00 | 0.00 | 58 | 1020.2 |
| 20260502201016 | 14 | 338 | 11.3 | 16.1 | 0.00 | 0.00 | 0.00 | 58 | 1020.2 |
| 20260502200516 | 14 | 338 | 11.3 | 17.7 | 0.00 | 0.00 | 0.00 | 58 | 1020.2 |
| 20260502200016 | 14 | 338 | 12.9 | 20.9 | 0.00 | 0.00 | 0.00 | 58 | 1020.0 |
| 20260502195536 | 14 | 338 | 14.5 | 20.9 | 0.00 | 0.00 | 0.00 | 58 | 1020.0 |
| 20260502195036 | 14 | 338 | 11.3 | 17.7 | 0.00 | 0.00 | 0.00 | 58 | 1019.9 |
| 20260502194516 | 14 | 338 | 9.7 | 19.3 | 0.00 | 0.00 | 0.00 | 58 | 1019.9 |
| 20260502194015 | 15 | 338 | 9.7 | 14.5 | 0.00 | 0.00 | 0.00 | 58 | 1019.9 |
| 20260502193516 | 15 | 338 | 11.3 | 17.7 | 0.00 | 0.00 | 0.00 | 57 | 1019.8 |
| 20260502193036 | 15 | 338 | 11.3 | 17.7 | 0.00 | 0.00 | 0.00 | 57 | 1019.7 |
| 20260502192515 | 15 | 338 | 12.9 | 19.3 | 0.00 | 0.00 | 0.00 | 57 | 1019.7 |
| 20260502192016 | 15 | 338 | 14.5 | 19.3 | 0.00 | 0.00 | 0.00 | 57 | 1019.5 |
| 20260502191516 | 15 | 338 | 14.5 | 19.3 | 0.00 | 0.00 | 0.00 | 57 | 1019.5 |
| 20260502191016 | 15 | 338 | 12.9 | 20.9 | 0.00 | 0.00 | 0.00 | 57 | 1019.4 |
| 20260502190516 | 15 | 338 | 12.9 | 19.3 | 0.00 | 0.00 | 0.00 | 56 | 1019.3 |
| 20260502190015 | 15 | 338 | 14.5 | 20.9 | 0.00 | 0.00 | 0.00 | 56 | 1019.3 |
| 20260502185515 | 15 | 338 | 16.1 | 20.9 | 0.00 | 0.00 | 0.00 | 56 | 1019.3 |
| 20260502185016 | 15 | 338 | 16.1 | 20.9 | 0.00 | 0.00 | 0.00 | 56 | 1019.3 |
| 20260502184516 | 15 | 338 | 14.5 | 20.9 | 0.00 | 0.00 | 0.00 | 56 | 1019.2 |